Regional Weather Roundup
Issued by NWS Northern Indiana

Home | Current Version | Previous Version | Text Only | Print | Product List | Glossary Off
Versions: 1 2 3 4 5 6 7 8 9 10 11 12 13 14 15 16 17 18 19 20 21 22 23 24 25 26 27 28 29 30 31 32 33 34 35 36 37 38 39 40 41 42 43 44 45 46 47 48 49 50

000
ASUS43 KIWX 182200
RWRIWX

KIWX WEATHER ROUNDUP
NATIONAL WEATHER SERVICE NORTHERN INDIANA
500 PM EST WED JAN 18 2017

NOTE: "FAIR" INDICATES FEW OR NO CLOUDS BELOW 12,000 FEET WITH NO
SIGNIFICANT WEATHER AND/OR OBSTRUCTIONS TO VISIBILITY.

* THESE STATIONS ARE NOT UNDER NWS QUALITY CONTROL. THEY ALSO MAY NOT
  REPORT WEATHER SUCH AS PRECIPITATION OR FOG.

INZ001>027-182300-
NORTHERN INDIANA

CITY           SKY/WX    TMP DP  RH WIND       PRES   REMARKS
GARY*          MOCLDY    39  32  75 SW12      30.08S
KNOX*          CLOUDY    34  23  64 SW7       30.08F WCI  28
SOUTH BEND     CLOUDY    33  33 100 SW9       30.09S FOG     WCI  25
ELKHART*       CLOUDY    34  32  93 SW10      30.09R WCI  26
GOSHEN         CLOUDY    34  31  88 SW10      30.09  WCI  26
FORT WAYNE     CLOUDY    36  33  89 W12       30.10S
PERU/GRISSOM   CLOUDY    36  36 100 W10       30.09S

$$
INZ028>050-182300-
CENTRAL INDIANA

CITY           SKY/WX    TMP DP  RH WIND       PRES   REMARKS
LAFAYETTE      CLOUDY    37  34  89 SW7       30.12R
KOKOMO*        CLOUDY    36  35  96 SW13      30.12R
MUNCIE*        CLOUDY    38  35  89 W7        30.11R
INDIANAPOLIS   CLOUDY    38  35  89 SW9       30.12S

$$
MIZ043>046-050>051-056>058-064>065-071>073-077>080-182300-
SOUTHWEST LOWER MICHIGAN

CITY           SKY/WX    TMP DP  RH WIND       PRES   REMARKS
BATTLE CREEK   CLOUDY    35  35 100 W8        30.07R FOG     WCI  29
BENTON HARBOR  CLOUDY    35  32  88 SW13      30.09R FOG     WCI  26
COLDWATER*     CLOUDY    35  35 100 SW12      30.06F FOG     WCI  26
HILLSDALE*     FOG       32  32 100 SW10      30.04F VSB 1/2 WCI  24
HOLLAND        CLOUDY    36  33  89 SW14      30.06F
GRAND RAPIDS   CLOUDY    35  32  88 SW13      30.05F FOG     WCI  26
KALAMAZOO      CLOUDY    36  33  89 SW8       30.08R FOG
STURGIS*       CLOUDY    34  33  98 SW10      30.06S FOG     WCI  26
THREE RIVERS*  CLOUDY    34  33  96 SW7       30.08R FOG     WCI  28

$$
OHZ001>008-015>018-024>025-182300-
NORTHWEST OHIO

CITY           SKY/WX    TMP DP  RH WIND       PRES   REMARKS
DEFIANCE       CLOUDY    35  33  92 W9        30.09S WCI  28
FINDLAY        CLOUDY    38  33  82 SW13      30.09S
TOLEDO EXPRESS CLOUDY    37  35  92 SW13      30.08S
TOLEDO METCALF CLOUDY    39  36  89 SW14G22   30.09S
LIMA           CLOUDY    36  34  92 SW13      30.09F

$$
AND FOR LAKE MICHIGAN COASTAL AND OPEN LAKE BUOY OBSERVATIONS

STATION/POSITION TEMP    WIND        PRES    VSBY  WAVE
                 AIR SEA DIR/SP/G                  HT/PER
                 (F)     (DEG/KT/KT) (MB)    (MI)  (FT/S)
CALUMET HARBOR    37     200/  8/ 11 1017.5F
BURNS HARBOR      38     200/  9/ 12 1019.0S
SAINT JOSEPH      34     230/ 14/ 17 1019.0

$$
&&



USA.gov is the U.S. government's official web portal to all federal, state and local government web resources and services.